Regional Weather Roundup
Issued by NWS

Home | Current Version | Previous Version | Text Only | Print | Product List | Glossary Off
Versions: 1 2 3 4 5 6 7 8 9 10 11 12 13 14 15 16 17 18 19 20 21 22 23 24 25 26 27 28 29 30 31 32 33 34 35 36 37 38 39 40 41 42 43 44 45 46 47 48 49 50

000
ASUS43 KLOT 282210
RWRIL

ILLINOIS REGIONAL WEATHER ROUNDUP
NATIONAL WEATHER SERVICE CHICAGO/ROMEOVILLE IL
500 PM CDT MON JUL 28 2014

NOTE: "FAIR" INDICATES FEW OR NO CLOUDS BELOW 12,000 FEET WITH NO
SIGNIFICANT WEATHER AND/OR OBSTRUCTIONS TO VISIBILITY.

* THESE STATIONS ARE NOT UNDER NWS QUALITY CONTROL. THEY ALSO MAY NOT
  REPORT WEATHER SUCH AS PRECIPITATION OR FOG.

ILZ001-002-007-009-015-016-024-282300-
NORTHWEST ILLINOIS

CITY           SKY/WX    TMP DP  RH WIND       PRES   REMARKS
MOLINE         CLOUDY    72  49  44 N8        30.14S
STERLING*      CLOUDY    73  52  46 N8        30.13S
SAVANNA*       PTSUNNY   73  49  41 N9        30.13S
$$

ILZ003-004-008-010-011-017-018-282300-
NORTH CENTRAL ILLINOIS

CITY           SKY/WX    TMP DP  RH WIND       PRES   REMARKS
ROCKFORD       PTSUNNY   73  48  41 N9        30.12S
FREEPORT*      PTSUNNY   70  51  52 NW9       30.14F
ROCHELLE*      CLOUDY    70  49  46 N12       30.12S
DE KALB*       PTSUNNY   68  50  52 N7        30.12S
PERU*          CLOUDY    71  49  45 N7G17     30.12S
$$

ILZ005-006-012>014-019>023-282300-
NORTHEAST ILLINOIS

CITY           SKY/WX    TMP DP  RH WIND       PRES   REMARKS
CHICAGO-OHARE  MOSUNNY   71  48  43 NE8       30.09R
CHICAGO-MIDWAY MOSUNNY   72  50  45 NE12      30.08S
AURORA         PTSUNNY   70  49  47 NW9       30.11R
LANSING*       SUNNY     65  47  51 N12G20    30.10S
JOLIET*        CLOUDY    70  45  40 N7        30.10S
WAUKEGAN       SUNNY     65  50  58 NE6       30.08F
DUPAGE AIRPORT CLOUDY    70  49  47 N8        30.09S
KANKAKEE*      SUNNY     69  48  46 N12G18    30.09F
WHEELING       SUNNY     68  50  52 NE8       30.11R
MORRIS*        CLOUDY    70  51  51 N5        30.10S
ROMEOVILLE*    CLOUDY    70  45  40 N9G16     30.09S
NORTHERLY ISL    N/A     64  49  57 MISG        N/A
$$

LMZ740>746-282300-
SOUTHERN LAKE MICHIGAN

STATION/POSITION SKY/WX   TEMP    WIND        PRES    VSBY  WAVE
                          AIR SEA DIR/SP/G                  HT/PER
                          (F)     (DEG/KT/KT) (MB)    (MI)  (FT/S)
SOUTHERN BUOY              59 60  340/ 17/ 19 1018.3R         6/ 7
WAUKEGAN HARBOR            61      30/ 10/ 12   N/A
HARRISON CRIB              62      10/ 16/ 18   N/A
BURNHAM HARBOR             64      20/  9/ 14   N/A
CALUMET HARBOR             63     340/ 11/ 14 1018.1S
MICHIGAN CITY              63     330/ 26/ 31   N/A
MICHIGAN CITY 6N           63 67  360/ 19/ 25   N/A           8/ 7
ST. JOSEPH                 60 66  350/ 17/ 23   N/A          10/ 7
$$

ILZ025>027-034>036-040-047-049-050-058-095>099-282300-
WEST-CENTRAL ILLINOIS

CITY           SKY/WX    TMP DP  RH WIND       PRES   REMARKS
QUINCY         MOSUNNY   72  52  49 N15       30.14S
GALESBURG*     CLOUDY    72  54  52 N8        30.15S
MACOMB*        MOSUNNY   70  52  52 N10       30.17S
JACKSONVILLE*  MOSUNNY   74  55  50 NW12G22   30.13S
PITTSFIELD*    MOSUNNY   73  55  52 N10G16    30.14S
$$

ILZ028>032-037-038-041>044-048-051>054-059>061-282300-
CENTRAL ILLINOIS

CITY           SKY/WX    TMP DP  RH WIND       PRES   REMARKS
PONTIAC        MOSUNNY   72  52  49 N8        30.11S
DECATUR        PTSUNNY   73  53  49 N10       30.10S
PEORIA         PTSUNNY   72  50  45 N8        30.12S
LACON*         CLOUDY    71  49  46 N7        30.11S
LINCOLN*       PTSUNNY   73  53  49 N8        30.08S
SPRINGFIELD    MOSUNNY   73  54  51 NW16G22   30.11F
TAYLORVILLE    PTSUNNY   72  54  53 N16       30.10F
$$

ILZ033-039-045-046-055>057-062-063-282300-
EAST-CENTRAL ILLINOIS

CITY           SKY/WX    TMP DP  RH WIND       PRES   REMARKS
CHAMPAIGN      PTSUNNY   70  52  52 N10       30.09S
DANVILLE*      PTSUNNY   68  52  57 N20       30.05S
RANTOUL*       PTSUNNY   72  48  42 N13G23    30.10R
MATTOON        MOSUNNY   71  54  54 NW14      30.08R
PARIS*         MOSUNNY   73  56  55 NW12      30.07S
$$

ILZ079-100>102-282300-
SOUTHWEST ILLINOIS

CITY           SKY/WX    TMP DP  RH WIND       PRES   REMARKS
ALTON          CLOUDY    72  61  68 NW6       30.11S
BELLEVILLE     CLOUDY    77  59  54 N16       30.08S
CAHOKIA*       CLOUDY    78  59  51 N20       30.09S
SPARTA*        PTSUNNY   73  59  60 N10G20    30.08S
$$

ILZ064>066-069>071-074>076-080>082-084>086-088>090-092>094-282300-
SOUTH-CENTRAL ILLINOIS

CITY           SKY/WX    TMP DP  RH WIND       PRES   REMARKS
CARBONDALE     PTSUNNY   80  60  50 N9G17     30.05F HX  81
CAIRO*         SUNNY     82  62  51 NW9       30.04S HX  83
EFFINGHAM*     PTSUNNY   74  49  42 NW14      30.08S
MARION         PTSUNNY   81  61  50 N12       30.06F HX  81
MT. VERNON     MOSUNNY   75  57  53 N8        30.08R
CENTRALIA*     PTSUNNY   75  53  45 N16G22    30.08S
SALEM*         MOSUNNY  N/A N/A N/A N16G23    30.08F
METROPOLIS*    MOSUNNY   82  55  38 N8        30.03S HX  81
$$

ILZ067-068-072-073-078-083-087-091-282300-
SOUTHEAST ILLINOIS

CITY           SKY/WX    TMP DP  RH WIND       PRES   REMARKS
LAWRENCEVILLE  PTSUNNY   76  56  49 NW16      30.05S
FLORA*         SUNNY     74  53  48 N13       30.07S
FAIRFIELD*     MOSUNNY   75  61  60 NW8       30.05F
HARRISBURG*    PTSUNNY   76  61  58 N10       30.06S
ROBINSON*      PTSUNNY   76  58  51 N10G17    30.06S
$$

ABBREVIATIONS USED IN REMARKS
   TC - TEMPERATURE IN CELSIUS
  WCI - WIND CHILL INDEX
   HX - HEAT INDEX
  VSB - VISIBILITY
$$



USA.gov is the U.S. government's official web portal to all federal, state and local government web resources and services.